THORAD DELTA 1 DEB, 8163

Orbit data source: Space-Track

THORAD DELTA 1 DEB, 8163 is space debris in SSO originally from a launch on Fri, 15 Nov 1974 UTC launched from the Air Force Western Test Range (AFWTR). Debris objects in space refer to the collection of defunct objects orbiting the Earth. Examples of debris include non-operational satellites, rocket bodies, and fragments generated from explosions, collisions, or faulty payload assembly.

Loading next visibility...
Identifier
8163, 1974-089AD
Orbit
SSO
Last TLE update
1 day ago
Origin
Manufacturer
Unknown
Mission
Spacecraft
Bus & Motor
Unknown
Mass
Unknown
Launch date (UTC)
1974-11-15 (50 years ago)
Launch vehicle
Unknown
Launch site
Air Force Western Test Range (AFWTR)
Object type
Payload
Rocket body
Debris
Shape & HBR
Unknown
Radar Cross Section
Small (<0.1 m²)

Expand to show TLE details & history

TLE from 1 day ago
0 THORAD DELTA 1 DEB
1 08163U 74089AD  25127.97361837  .00000550  00000-0  37084-2 0  9991
2 08163 102.5070 134.6806 0338845  76.6549 287.2054 12.38954249260497
Epoch: 2025-05-07T23:22Z
Definitive object data (Epoch: 2025-05-07T23:22:00.627Z)
Latitude
-0.00003°
Longitude
-81.87279°
Altitude
1,442.871 km
Speed
7.172 km/s
True Right ascension
08h 58m 43s
True Declination
0° 00' 00"
Sunlit
Object was in daylight at TLE epoch
Visualization TLE readout
Latitude
24.11743°
Longitude
-86.21192°
Altitude
1,335.128 km
Speed
7.273 km/s
Apparent Right ascension
06h 21m 17s
Apparent Declination
-6° 15' 06"
Sunlit
Object is in daylight
Visualization observer readout
Local Sidereal Time
14:38:55
Azimuth
288.656° WNW
Elevation
-30.046°
Doppler factor
1
Orbital elements
Apogee altitude
1,775.882 km
Perigee altitude
1,241.402 km
Semi-major axis
7,886.779 km
Eccentricity
0.0338845
Inclination
102.507°
RAAN
134.6806°
Arg. of periapsis
76.6549°
True anomaly
283.45193°
Mean anomaly
287.2054°
Eccentric anomaly
285.33307°
Mean motion
3.0988 °/min
BSTAR
0.0037084
Orbital period
116.17 mins
Loading maneuver chart data...
Loading SW <> Apogee altitude chart data...
Loading historical data...
Loading historical data...
Loading historical data...
Loading historical data...
Loading historical data...
Loading historical data...
Loading historical data...

THORAD DELTA 1 DEB Visibility forecast

Observer location: undefined°, undefined°

Span
Click to sort rows by Start time (UTC) header in descending order
Start Az.
Max El. time (UTC)
Max El. Az.
Max El.
End time (UTC)
End Az.
14 mins2025-05-09 12:48:04.495Z32.276° NE2025-05-09 12:54:04.495Z94.277° ESE37.371°2025-05-09 13:02:04.495Z176.514° S
12 mins2025-05-09 14:43:04.495Z355.088° N2025-05-09 14:48:04.495Z302.934° NW30.031°2025-05-09 14:55:04.495Z239.898° WSW
6 mins2025-05-09 22:06:04.495Z73.644° E2025-05-09 22:09:04.495Z47.161° ENE14.776°2025-05-09 22:12:04.495Z21.192° NNE
12 mins2025-05-09 23:56:04.495Z152.11° SSE2025-05-10 00:02:04.495Z41.027° NE44.219°2025-05-10 00:08:04.495Z345.029° N
8 mins2025-05-10 01:53:04.495Z234.885° WSW2025-05-10 01:56:04.495Z261.489° W17.19°2025-05-10 02:01:04.495Z305.306° NW
|